GW3385 Weather Reports


time (UTC)temp
C
wind
direction
speed
KPH
gust
KPH
rain 1hr
cm
rain 24hr
cm
rain mn
cm
humidity
%
barometer
mb
20260901110103 16 0 0.0 0.0 0.00 0.00 0.00 92 1013.3
20260901105555 16 0 0.0 0.0 0.00 0.00 0.00 91 1013.4
20260901105055 16 0 0.0 0.0 0.00 0.00 0.00 91 1013.3
20260901104605 16 0 0.0 0.0 0.00 0.00 0.00 91 1013.3
20260901104055 16 0 0.0 0.0 0.00 0.00 0.00 91 1013.4
20260901103554 16 0 0.0 0.0 0.00 0.00 0.00 91 1013.5
20260901103101 16 0 0.0 0.0 0.00 0.00 0.00 91 1013.5
20260901102555 16 0 0.0 1.6 0.00 0.00 0.00 92 1013.5
20260901102055 16 0 0.0 1.6 0.00 0.00 0.00 92 1013.5
20260901101607 16 0 0.0 3.2 0.00 0.00 0.00 92 1013.5
20260901101054 16 0 0.0 3.2 0.00 0.00 0.00 91 1013.5
20260901100554 16 0 0.0 3.2 0.00 0.00 0.00 91 1013.5
20260901100107 16 0 0.0 3.2 0.00 0.00 0.00 91 1013.5
20260901095555 16 0 0.0 4.8 0.00 0.00 0.00 91 1013.7
20260901095055 16 0 0.0 4.8 0.00 0.00 0.00 91 1013.6
20260901094558 16 0 1.6 4.8 0.00 0.00 0.00 91 1013.6
20260901094056 16 0 0.0 0.0 0.00 0.00 0.00 91 1013.6
20260901093555 16 0 0.0 0.0 0.00 0.00 0.00 91 1013.5
20260901093103 16 0 0.0 3.2 0.00 0.00 0.00 91 1013.4
20260901092555 16 0 0.0 3.2 0.00 0.00 0.00 91 1013.4
20260901092055 16 0 0.0 0.0 0.00 0.00 0.00 91 1013.4
20260901091556 16 0 0.0 1.6 0.00 0.00 0.00 90 1013.4
20260901091056 16 0 0.0 1.6 0.00 0.00 0.00 90 1013.4
20260901090554 16 0 0.0 4.8 0.00 0.00 0.00 90 1013.5
20260901090107 16 0 0.0 4.8 0.00 0.00 0.00 90 1013.5
20260901085554 16 0 0.0 0.0 0.00 0.00 0.00 90 1013.6
20260901085055 17 0 0.0 0.0 0.00 0.00 0.00 90 1013.6
20260901084627 17 0 0.0 0.0 0.00 0.00 0.00 90 1013.6
20260901084055 17 0 0.0 0.0 0.00 0.00 0.00 90 1013.5
20260901083555 17 0 0.0 0.0 0.00 0.00 0.00 90 1013.5
20260901083059 17 0 0.0 0.0 0.00 0.00 0.00 90 1013.5
20260901082554 17 0 0.0 0.0 0.00 0.00 0.00 90 1013.5
20260901082054 17 0 0.0 4.8 0.00 0.00 0.00 90 1013.6
20260901081556 17 0 0.0 4.8 0.00 0.00 0.00 90 1013.5
20260901081054 17 342 0.0 4.8 0.00 0.00 0.00 90 1013.5
20260901080554 17 0 0.0 0.0 0.00 0.00 0.00 90 1013.6
20260901080111 17 0 0.0 0.0 0.00 0.00 0.00 90 1013.6
20260901075555 17 0 0.0 0.0 0.00 0.00 0.00 89 1013.6
20260901075057 17 0 0.0 0.0 0.00 0.00 0.00 89 1013.7
20260901074628 17 0 0.0 0.0 0.00 0.00 0.00 89 1013.7
20260901074056 17 0 0.0 0.0 0.00 0.00 0.00 89 1013.8
20260901073556 17 0 0.0 0.0 0.00 0.00 0.00 89 1013.8
20260901073101 17 0 0.0 0.0 0.00 0.00 0.00 89 1013.9
20260901072558 17 0 0.0 0.0 0.00 0.00 0.00 89 1013.9
20260901072055 17 0 0.0 0.0 0.00 0.00 0.00 89 1013.8
20260901071608 17 0 0.0 0.0 0.00 0.00 0.00 89 1013.8
20260901071054 17 0 0.0 0.0 0.00 0.00 0.00 89 1013.8
20260901070555 17 0 0.0 0.0 0.00 0.00 0.00 89 1013.7
20260901070058 17 0 0.0 0.0 0.00 0.00 0.00 89 1013.7
20260901065555 17 0 0.0 0.0 0.00 0.00 0.00 88 1013.5
20260901065055 17 0 0.0 0.0 0.00 0.00 0.00 89 1013.5
20260901064559 17 0 0.0 0.0 0.00 0.00 0.00 89 1013.4
20260901064059 17 0 0.0 0.0 0.00 0.00 0.00 89 1013.4
20260901063554 17 0 0.0 0.0 0.00 0.00 0.00 89 1013.3
20260901063105 17 0 0.0 0.0 0.00 0.00 0.00 88 1013.2
20260901062556 17 0 0.0 0.0 0.00 0.00 0.00 88 1013.2
20260901062056 17 0 0.0 0.0 0.00 0.00 0.00 88 1013.2
20260901061611 18 0 0.0 0.0 0.00 0.00 0.00 88 1013.2
20260901061056 18 0 0.0 0.0 0.00 0.00 0.00 88 1013.2
20260901060556 18 0 0.0 0.0 0.00 0.00 0.00 88 1013.1
20260901060103 18 0 0.0 0.0 0.00 0.00 0.00 88 1013.0
20260901055555 18 0 0.0 0.0 0.00 0.00 0.00 88 1013.0
20260901055055 18 0 0.0 0.0 0.00 0.00 0.00 87 1013.1
20260901054604 18 0 0.0 1.6 0.00 0.00 0.00 87 1013.1
20260901054058 18 0 0.0 4.8 0.00 0.00 0.00 87 1013.1
20260901053556 18 0 0.0 4.8 0.00 0.00 0.00 87 1013.1
20260901053107 18 344 0.0 3.2 0.00 0.00 0.00 87 1013.0
20260901052555 18 324 0.0 4.8 0.00 0.00 0.00 87 1012.9
20260901052055 18 0 0.0 4.8 0.00 0.00 0.00 87 1012.9
20260901051612 18 0 0.0 3.2 0.00 0.00 0.00 86 1012.9
20260901051055 18 0 0.0 4.8 0.00 0.00 0.00 86 1013.1
20260901050555 18 243 0.0 6.4 0.00 0.00 0.00 86 1012.9
20260901050104 18 140 1.6 6.4 0.00 0.00 0.00 87 1012.9
20260901045555 18 0 0.0 8.0 0.00 0.00 0.00 86 1012.8
20260901045054 18 0 0.0 8.0 0.00 0.00 0.00 87 1012.8
20260901044604 18 175 0.0 4.8 0.00 0.00 0.00 87 1012.7
20260901044055 18 0 0.0 1.6 0.00 0.00 0.00 86 1012.7
20260901043555 18 0 0.0 3.2 0.00 0.00 0.00 86 1012.6
20260901043056 18 0 0.0 3.2 0.00 0.00 0.00 87 1012.5
20260901042555 18 0 0.0 0.0 0.00 0.00 0.00 87 1012.5
20260901042054 18 0 0.0 0.0 0.00 0.00 0.00 87 1012.5
20260901041619 18 0 0.0 0.0 0.00 0.00 0.00 86 1012.4
20260901041057 18 0 0.0 0.0 0.00 0.00 0.00 86 1012.2
20260901040555 19 0 0.0 0.0 0.00 0.00 0.00 86 1012.1
20260901040137 19 0 0.0 0.0 0.00 0.00 0.00 86 1012.1
20260901035556 19 0 0.0 0.0 0.00 0.00 0.00 86 1012.2
20260901035054 19 0 0.0 3.2 0.00 0.00 0.00 86 1012.1
20260901034559 19 0 0.0 4.8 0.00 0.00 0.00 86 1012.0
20260901034058 19 0 1.6 4.8 0.00 0.00 0.00 86 1011.9
20260901033554 19 0 1.6 4.8 0.00 0.00 0.00 86 1012.0
20260901033059 19 0 0.0 3.2 0.00 0.00 0.00 86 1011.8
20260901032556 19 0 0.0 3.2 0.00 0.00 0.00 86 1011.8
20260901032053 19 0 0.0 0.0 0.00 0.00 0.00 86 1011.7
20260901031602 19 0 0.0 3.2 0.00 0.00 0.00 85 1011.7
20260901031056 19 0 0.0 4.8 0.00 0.00 0.00 85 1011.8
20260901030555 19 0 1.6 9.7 0.00 0.00 0.00 85 1011.7
20260901030106 19 0 0.0 9.7 0.00 0.00 0.00 85 1011.7
20260901025552 19 254 4.8 9.7 0.00 0.00 0.00 85 1011.7
20260901025056 20 277 1.6 9.7 0.00 0.00 0.00 85 1011.5
20260901024606 20 207 4.8 11.3 0.00 0.00 0.00 85 1011.6
20260901024052 20 0 3.2 16.1 0.00 0.00 0.00 84 1011.4
20260901023553 20 254 8.0 16.1 0.00 0.00 0.00 84 1011.4
20260901023103 20 296 4.8 17.7 0.00 0.00 0.00 84 1011.4
20260901022552 20 309 4.8 17.7 0.00 0.00 0.00 84 1011.5
20260901022052 20 289 4.8 14.5 0.00 0.00 0.00 83 1011.6
20260901021601 20 267 1.6 16.1 0.00 0.00 0.00 82 1011.6
20260901021052 20 303 4.8 17.7 0.00 0.00 0.00 82 1011.6
20260901020556 20 300 8.0 17.7 0.00 0.00 0.00 81 1011.6
20260901020101 21 216 8.0 17.7 0.00 0.00 0.00 81 1011.5
20260901015555 21 155 9.7 19.3 0.00 0.00 0.00 80 1011.5
20260901015055 21 287 6.4 19.3 0.00 0.00 0.00 81 1011.5
20260901014602 21 209 4.8 17.7 0.00 0.00 0.00 81 1011.6
20260901014055 21 269 6.4 16.1 0.00 0.00 0.00 80 1011.5
20260901013555 21 283 8.0 14.5 0.00 0.00 0.00 79 1011.5
20260901013101 21 0 8.0 17.7 0.00 0.00 0.00 78 1011.6
20260901012555 21 232 8.0 17.7 0.00 0.00 0.00 78 1011.5
20260901012055 22 279 8.0 17.7 0.00 0.00 0.00 76 1011.5
20260901011556 22 261 4.8 12.9 0.00 0.00 0.00 78 1011.6
20260901011055 22 177 4.8 16.1 0.00 0.00 0.00 78 1011.6
20260901010555 22 246 8.0 16.1 0.00 0.00 0.00 77 1011.7
20260901010113 22 161 6.4 14.5 0.00 0.00 0.00 76 1011.7
20260901005555 22 206 8.0 14.5 0.00 0.00 0.00 75 1011.7
20260901005055 22 209 6.4 16.1 0.00 0.00 0.00 75 1011.7
20260901004603 22 252 8.0 17.7 0.00 0.00 0.00 75 1011.7
20260901004054 22 261 6.4 17.7 0.00 0.00 0.00 75 1011.6
20260901003554 22 252 6.4 17.7 0.00 0.00 0.00 75 1011.6
20260901003059 22 253 6.4 17.7 0.00 0.00 0.00 75 1011.6
20260901002554 22 196 4.8 19.3 0.00 0.00 0.00 75 1011.6
20260901002056 22 255 6.4 19.3 0.00 0.00 0.00 74 1011.8
20260901001603 22 175 8.0 19.3 0.00 0.00 0.00 74 1011.7
20260901001058 22 272 6.4 19.3 0.00 0.00 0.00 75 1011.8
20260901000556 23 205 9.7 17.7 0.00 0.00 0.00 73 1011.9
20260901000113 23 196 6.4 19.3 0.00 0.00 0.00 74 1011.8
20260831235556 23 211 11.3 27.4 0.00 0.00 0.00 72 1011.8
20260831235056 23 247 11.3 27.4 0.00 0.00 0.00 71 1011.8
20260831234556 23 173 14.5 27.4 0.00 0.00 0.00 69 1011.8
20260831234056 23 228 11.3 22.5 0.00 0.00 0.00 68 1011.8
20260831233554 23 194 9.7 19.3 0.00 0.00 0.00 64 1011.7
20260831233111 23 252 9.7 20.9 0.00 0.00 0.00 66 1011.7
20260831232554 23 261 12.9 20.9 0.00 0.00 0.00 64 1011.6
20260831232054 24 294 9.7 20.9 0.00 0.00 0.00 68 1011.7
20260831231553 23 261 6.4 20.9 0.00 0.00 0.00 67 1011.6
20260831231056 23 200 11.3 20.9 0.00 0.00 0.00 65 1011.6
20260831230558 24 296 9.7 17.7 0.00 0.00 0.00 67 1011.8
20260831230115 24 161 8.0 20.9 0.00 0.00 0.00 64 1011.7
20260831225556 23 275 8.0 22.5 0.00 0.00 0.00 63 1011.7
20260831225053 24 200 12.9 22.5 0.00 0.00 0.00 62 1011.7
20260831224559 24 234 12.9 20.9 0.00 0.00 0.00 62 1011.8
20260831224052 24 203 9.7 19.3 0.00 0.00 0.00 58 1012.0
20260831223553 24 192 9.7 19.3 0.00 0.00 0.00 60 1011.9
20260831223109 24 222 8.0 17.7 0.00 0.00 0.00 60 1011.9
20260831222555 24 275 6.4 17.7 0.00 0.00 0.00 64 1011.9
20260831222052 24 247 8.0 20.9 0.00 0.00 0.00 66 1012.1
20260831221559 24 163 9.7 20.9 0.00 0.00 0.00 66 1012.1
20260831221052 24 298 11.3 20.9 0.00 0.00 0.00 66 1012.1
20260831220552 24 276 8.0 20.9 0.00 0.00 0.00 70 1012.2
20260831220104 24 272 11.3 24.1 0.00 0.00 0.00 71 1012.1
20260831215552 24 207 8.0 24.1 0.00 0.00 0.00 70 1012.2
20260831215052 24 209 11.3 24.1 0.00 0.00 0.00 72 1012.3
20260831214609 25 244 8.0 22.5 0.00 0.00 0.00 72 1012.3
20260831214052 25 116 6.4 20.9 0.00 0.00 0.00 74 1012.2
20260831213555 25 177 6.4 20.9 0.00 0.00 0.00 73 1012.4
20260831213101 25 209 8.0 20.9 0.00 0.00 0.00 73 1012.4
20260831212556 25 175 9.7 19.3 0.00 0.00 0.00 73 1012.5
20260831212059 25 201 6.4 16.1 0.00 0.00 0.00 73 1012.5
20260831211607 24 0 6.4 16.1 0.00 0.00 0.00 75 1012.5
20260831211056 24 196 6.4 16.1 0.00 0.00 0.00 74 1012.6
20260831210555 24 190 8.0 19.3 0.00 0.00 0.00 76 1012.6
20260831210057 24 291 8.0 19.3 0.00 0.00 0.00 75 1012.7
20260831205554 24 282 9.7 17.7 0.00 0.00 0.00 74 1012.7
20260831205056 24 307 6.4 22.5 0.00 0.00 0.00 74 1012.7
20260831204609 24 236 11.3 22.5 0.00 0.00 0.00 74 1012.7
20260831204057 24 263 9.7 19.3 0.00 0.00 0.00 75 1012.7
20260831203555 24 188 8.0 20.9 0.00 0.00 0.00 75 1012.7
20260831203116 24 214 9.7 22.5 0.00 0.00 0.00 75 1012.8
20260831202551 24 260 11.3 22.5 0.00 0.00 0.00 75 1012.8
20260831202054 24 222 6.4 19.3 0.00 0.00 0.00 73 1012.8
20260831201607 24 271 9.7 19.3 0.00 0.00 0.00 73 1012.8
20260831201057 24 180 8.0 19.3 0.00 0.00 0.00 73 1012.8
20260831200556 24 290 6.4 19.3 0.00 0.00 0.00 74 1012.9
20260831200111 24 300 8.0 19.3 0.00 0.00 0.00 74 1012.8
20260831195556 24 215 8.0 19.3 0.00 0.00 0.00 74 1012.9
20260831195055 24 130 6.4 17.7 0.00 0.00 0.00 74 1012.9
20260831194642 24 254 8.0 16.1 0.00 0.00 0.00 74 1012.9
20260831194052 24 311 6.4 16.1 0.00 0.00 0.00 75 1012.9
20260831193551 24 218 4.8 17.7 0.00 0.00 0.00 75 1013.2
20260831193100 24 253 6.4 17.7 0.00 0.00 0.00 75 1013.1
20260831192555 24 300 8.0 19.3 0.00 0.00 0.00 75 1013.1
20260831192055 24 261 6.4 19.3 0.00 0.00 0.00 76 1013.1
20260831191602 24 286 9.7 19.3 0.00 0.00 0.00 76 1013.1
20260831191058 24 304 6.4 17.7 0.00 0.00 0.00 75 1013.2
20260831190554 24 246 9.7 17.7 0.00 0.00 0.00 76 1013.2
20260831190109 24 141 4.8 16.1 0.00 0.00 0.00 77 1013.2
20260831185552 23 205 6.4 17.7 0.00 0.00 0.00 76 1013.2
20260831185051 24 148 8.0 17.7 0.00 0.00 0.00 75 1013.2
20260831184603 24 224 6.4 17.7 0.00 0.00 0.00 76 1013.2
20260831184055 24 282 4.8 17.7 0.00 0.00 0.00 76 1013.2
20260831183555 24 298 8.0 17.7 0.00 0.00 0.00 76 1013.2
20260831183107 24 188 6.4 17.7 0.00 0.00 0.00 75 1013.3
20260831182553 24 154 8.0 14.5 0.00 0.00 0.00 75 1013.2
20260831182058 23 203 1.6 16.1 0.00 0.00 0.00 76 1013.3
20260831181609 23 199 8.0 16.1 0.00 0.00 0.00 76 1013.3
20260831181055 23 174 3.2 16.1 0.00 0.00 0.00 76 1013.4
20260831180556 23 208 6.4 16.1 0.00 0.00 0.00 76 1013.4
20260831180111 23 225 4.8 16.1 0.00 0.00 0.00 77 1013.4
20260831175557 23 168 4.8 14.5 0.00 0.00 0.00 77 1013.3
20260831175054 23 184 4.8 17.7 0.00 0.00 0.00 76 1013.3
20260831174600 23 268 4.8 17.7 0.00 0.00 0.00 77 1013.3
20260831174055 23 183 4.8 16.1 0.00 0.00 0.00 77 1013.3
20260831173552 23 178 9.7 16.1 0.00 0.00 0.00 76 1013.3
20260831173055 23 300 4.8 16.1 0.00 0.00 0.00 76 1013.3
20260831172555 23 268 6.4 14.5 0.00 0.00 0.00 76 1013.3
20260831172055 24 221 6.4 14.5 0.00 0.00 0.00 74 1013.2
20260831171605 24 135 3.2 11.3 0.00 0.00 0.00 74 1013.2
20260831171052 23 244 3.2 11.3 0.00 0.00 0.00 75 1013.2
20260831170555 23 184 3.2 11.3 0.00 0.00 0.00 75 1013.1
20260831170101 23 0 0.0 12.9 0.00 0.00 0.00 76 1013.1
20260831165555 23 210 4.8 12.9 0.00 0.00 0.00 75 1013.1
20260831165051 23 197 4.8 11.3 0.00 0.00 0.00 75 1013.1
20260831164558 23 204 1.6 11.3 0.00 0.00 0.00 75 1013.0
20260831164054 23 125 4.8 11.3 0.00 0.00 0.00 74 1012.9
20260831163553 23 82 3.2 11.3 0.00 0.00 0.00 75 1012.9
20260831163056 23 196 1.6 9.7 0.00 0.00 0.00 75 1012.9
20260831162553 23 165 1.6 8.0 0.00 0.00 0.00 75 1012.9
20260831162052 23 271 3.2 8.0 0.00 0.00 0.00 75 1012.9
20260831161556 23 219 1.6 6.4 0.00 0.00 0.00 75 1012.9
20260831161053 23 190 0.0 6.4 0.00 0.00 0.00 76 1012.9
20260831160555 23 185 0.0 8.0 0.00 0.00 0.00 76 1012.9
20260831160103 23 44 1.6 8.0 0.00 0.00 0.00 76 1012.9
20260831155554 23 201 1.6 9.7 0.00 0.00 0.00 76 1012.9
20260831155052 22 103 1.6 9.7 0.00 0.00 0.00 77 1012.9
20260831154633 22 106 3.2 12.9 0.00 0.00 0.00 76 1012.8
20260831154056 22 69 0.0 12.9 0.00 0.00 0.00 77 1012.9
20260831153555 22 107 0.0 8.0 0.00 0.00 0.00 76 1012.8
20260831153118 22 0 3.2 8.0 0.00 0.00 0.00 76 1012.7
20260831152555 22 84 0.0 6.4 0.00 0.00 0.00 76 1012.7
20260831152055 22 82 1.6 6.4 0.00 0.00 0.00 76 1012.8
20260831151620 22 47 1.6 6.4 0.00 0.00 0.00 76 1012.7
20260831151051 22 0 0.0 4.8 0.00 0.00 0.00 78 1012.7
20260831150554 21 0 0.0 4.8 0.00 0.00 0.00 79 1012.7
20260831150104 21 0 0.0 0.0 0.00 0.00 0.00 82 1012.7
20260831145551 21 0 0.0 0.0 0.00 0.00 0.00 84 1012.7
20260831145054 20 0 0.0 0.0 0.00 0.00 0.00 85 1012.7
20260831144601 20 0 0.0 0.0 0.00 0.00 0.00 86 1012.6
20260831144055 20 0 0.0 0.0 0.00 0.00 0.00 87 1012.5
20260831143555 19 0 0.0 0.0 0.00 0.00 0.00 88 1012.5
20260831143101 19 0 0.0 0.0 0.00 0.00 0.00 88 1012.4
20260831142556 18 0 0.0 0.0 0.00 0.00 0.00 88 1012.3
20260831142055 18 0 0.0 0.0 0.00 0.00 0.00 88 1012.3
20260831141607 18 0 0.0 0.0 0.00 0.00 0.00 89 1012.2
20260831141053 18 0 0.0 0.0 0.00 0.00 0.00 89 1012.1
20260831140552 18 0 0.0 0.0 0.00 0.00 0.00 89 1012.0
20260831135553 18 0 0.0 0.0 0.00 0.00 0.00 89 1011.8
20260831135056 18 0 0.0 0.0 0.00 0.00 0.00 88 1011.7
20260831134600 18 0 0.0 0.0 0.00 0.00 0.00 88 1011.6
20260831134052 18 0 0.0 0.0 0.00 0.00 0.00 88 1011.7
20260831133555 18 0 0.0 0.0 0.00 0.00 0.00 88 1011.7
20260831133058 18 0 0.0 0.0 0.00 0.00 0.00 88 1011.6
20260831132556 18 0 0.0 0.0 0.00 0.00 0.00 89 1011.5
20260831132055 18 0 0.0 0.0 0.00 0.00 0.00 88 1011.5
20260831131601 18 0 0.0 1.6 0.00 0.00 0.00 88 1011.6
20260831131054 18 0 0.0 3.2 0.00 0.00 0.00 88 1011.7
20260831130557 18 0 0.0 3.2 0.00 0.00 0.00 88 1011.6
20260831130111 18 0 0.0 0.0 0.00 0.00 0.00 88 1011.5
20260831125552 18 0 0.0 0.0 0.00 0.00 0.00 88 1011.5
20260831125056 18 0 0.0 0.0 0.00 0.00 0.00 88 1011.5
20260831124610 18 0 0.0 0.0 0.00 0.00 0.00 88 1011.4
20260831124056 18 0 0.0 0.0 0.00 0.00 0.00 88 1011.4
20260831123555 18 0 0.0 1.6 0.00 0.00 0.00 88 1011.4
20260831123109 18 0 0.0 3.2 0.00 0.00 0.00 88 1011.4
20260831122559 18 0 0.0 3.2 0.00 0.00 0.00 88 1011.4
20260831122055 18 349 0.0 4.8 0.00 0.00 0.00 88 1011.3
20260831121609 18 0 0.0 4.8 0.00 0.00 0.00 88 1011.3
20260831121051 18 341 0.0 1.6 0.00 0.00 0.00 88 1011.3
20260831120552 18 0 0.0 1.6 0.00 0.00 0.00 87 1011.3
20260831120101 18 0 0.0 1.6 0.00 0.00 0.00 87 1011.3
20260831115551 18 0 0.0 0.0 0.00 0.00 0.00 87 1011.3
20260831115051 18 0 0.0 0.0 0.00 0.00 0.00 87 1011.3
20260831114608 18 0 0.0 0.0 0.00 0.00 0.00 87 1011.3
20260831114056 18 0 0.0 3.2 0.00 0.00 0.00 87 1011.2
20260831113556 18 0 0.0 3.2 0.00 0.00 0.00 87 1011.2
20260831113105 18 0 0.0 3.2 0.00 0.00 0.00 87 1011.2
20260831112556 18 0 0.0 4.8 0.00 0.00 0.00 87 1011.2
20260831112052 18 0 0.0 4.8 0.00 0.00 0.00 87 1011.3
20260831111600 18 0 0.0 4.8 0.00 0.00 0.00 86 1011.3
20260831111052 18 0 1.6 4.8 0.00 0.00 0.00 86 1011.3
20260831110554 18 0 0.0 3.2 0.00 0.00 0.00 85 1011.3